User: anonymous   Login
Location: Arborea
(39.7744°N, 8.5819°E)
Time: 07:10:12
(UTC+00:00)
Language:

USA 229 - Orbit

View from above orbital plane
View from above orbital plane
View from above satellite
View from above satellite

Ground track
Ground track

The orbit data is extracted from the following two-line orbital elements,

1 37386U 11014A   22271.76509288 0.00000000  00000-0  00000-0 0    06
2 37386  63.4320 143.8643 0237048 357.5347   2.4653 13.40837814    03
Epoch (UTC): 28 September 2022 18:21:44
Eccentricity: 0.0237048
inclination: 63.4320°
perigee height: 929 km
apogee height: 1283 km
right ascension of ascending node: 143.8643°
argument of perigee: 357.5347°
revolutions per day: 13.40837814
mean anomaly at epoch: 2.4653°
orbit number at epoch: 0

The dashed part of the orbit path shows where the satellite is in the earth's shadow,  

DLR